Regional Weather Roundup
Issued by NWS Portland, ME

Home | Current Version | Previous Version | Text Only | Print | Product List | Glossary On
Versions: 1 2 3 4 5 6 7 8 9 10 11 12 13 14 15 16 17 18 19 20 21 22 23 24 25 26 27 28 29 30 31 32 33 34 35 36 37 38 39 40 41 42 43 44 45 46 47 48 49 50
000
ASUS41 KGYX 190910
RWRGYX
WEATHER ROUNDUP FOR MAINE AND NEW HAMPSHIRE
NATIONAL WEATHER SERVICE GRAY ME
400 AM EST SUN NOV 19 2017

MEZ002-005-006-010-012-015-018-020-021-024-026-027-029-191000-
MAINE

CITY           SKY/WX    TMP DP  RH WIND       PRES   REMARKS
PORTLAND       LGT RAIN  50  49  96 S10G21    29.31F
SANFORD        LGT RAIN  41  41 100 CALM      29.29F FOG
WISCASSET      LGT RAIN  50  50 100 W3        29.34F
ROCKLAND       LGT RAIN  51  50  96 S10       29.35F FOG
FRYEBURG       HVY RAIN  33  33 100 CALM      29.31F FOG
LEWISTONAUBURN LGT RAIN  36  36 100 N3        29.30F FOG
AUGUSTA        LGT RAIN  42  42 100 S7        29.32F VSB 1/4
WATERVILLE     LGT RAIN  37  36  96 CALM      29.28F
BANGOR         LGT RAIN  48  47  96 SE8       29.35F
GREENVILLE     NOT AVBL
MILLINOCKET    LGT RAIN  36  36 100 E6        29.37F FOG
HOULTON        CLOUDY    34  34 100 SE13      29.40F
PRESQUE ISLE   MIX PCPN  33  30  88 SE5       29.42F
FRENCHVILLE    FRZ RAIN  27  25  92 E13       29.40F WCI  16
CARIBOU        FRZ RAIN  33  29  85 E12       29.41F
$$

NHZ002-005-008-009-011-012-014-191000-
NEW HAMPSHIRE

CITY           SKY/WX    TMP DP  RH WIND       PRES   REMARKS
PORTSMOUTH     CLOUDY    51  50  98 SE10      29.27F FOG
ROCHESTER      FOG       47  47 100 S5        29.28F VSB 1/2
NASHUA         LGT RAIN  38  38 100 CALM      29.28F FOG
MANCHESTER     FOG       39  39 100 CALM      29.26F VSB 1/2
CONCORD        LGT RAIN  36  34  92 CALM      29.27F VSB 1
LACONIA        RAIN      39  39 100 CALM      29.27F FOG
PLYMOUTH       LGT SNOW  33  33  99 CALM      29.28F
BERLIN         NOT AVBL
WHITEFIELD     LGT RAIN  36  36 100 CALM      29.20F
JAFFREY        LGT RAIN  53  52  96 S10G18    29.26F
KEENE          LGT RAIN  41  40  96 CALM      29.23F FOG
LEBANON        LGT RAIN  39  38  96 NW3       29.19F FOG
MT WASHINGTON  RAIN      34  34 100 SW52G60     N/A  VSB 0   WCI  17
$$

VTZ005-007-008-191000-
VERMONT

CITY           SKY/WX    TMP DP  RH WIND       PRES   REMARKS
MONTPELIER     LGT RAIN  40  40 100 S8        29.20F
BURLINGTON     CLOUDY    46  42  86 S8        29.11F
$$

MAZ007-012-024-CTZ003-RIZ002-NYZ038-NYZ072-191000-
SOUTHERN NEW ENGLAND AND NY

CITY           SKY/WX    TMP DP  RH WIND       PRES   REMARKS
BOSTON         CLOUDY    56  54  93 S12       29.30F
WORCESTER      LGT RAIN  53  50  89 S16       29.28F
NANTUCKET      CLOUDY    57  55  93 S18       29.43F
PROVIDENCE     CLOUDY    62  57  83 SW23G40   29.34F
HARTFORD       LGT RAIN  54  53  97 S13       29.26F
ALBANY         LGT RAIN  49  45  86 S18G29    29.15F
NEW YORK CITY  LGT RAIN  59  54  83 SW17G28   29.27F
$$

ANZ081-ANZ082-ANZ150-NHZ014-MEZ023>029-191000-
COASTAL MARINE OBSERVATIONS

STATION/POSITION TIME  TEMP    WIND        PRES    WAVE
                       AIR SEA DIR/SP/G            HT/PER
                 (UTC) (F)     (DEG/KT/KT) (MB)    (FT/S)
MOUNT DESERT ROC 0900   53     150/ 19/ 21  996.1F
MATINICUS ROCK   0800   52     190/ 22/ 23  995.9F
ISLE OF SHOALS   0800   51     150/ 22/ 23  993.1F
JEFFREYS LEDGE   0836      52                N/A     4/ 5
CASHES LEDGE BUO 0850   53 52               994.4F   4/ 6
GEORGES BANK BUO 0750   61 55              1003.6    6/ 7
$$

.............KEY..............
   WCI - WIND CHILL
   TC  - TEMPERATURE IN CELSIUS
   VSB - VISIBILITY IN MILES
   HX  - HEAT INDEX
   FAIR- INDICATES FEW OR NO CLOUDS BELOW 12,000 FT, WITH NO
         SIGNIFICANT WEATHER AND/OR OBSTRUCTIONS TO VISIBILITY.






USA.gov is the U.S. government's official web portal to all federal, state and local government web resources and services.